DAL75 EHAM-KATL

Flight info

Callsign DAL75
Flight time N/A
Altitude 38000
Route BERGI L60 PENIL M144 BAGSO DCT DOGAL/M081F380 DCT 54N020W 53N030W 52N040W 51N050W DCT ALLRY/N0460F400 DCT HITOR DCT TAFFY DCT BTV DCT HNK DCT HAR DCT OTTTO DCT MOL DCT FLASK OZZZI2
Aircraft A339/H-SADE1E2E3GHIJ3J5M1P2RWXY/LB2D1

Departure

Time 2026-04-29 22:19
Airport Amsterdam Airport Schiphol (EHAM)

Arrival

Time N/A
Airport Hartsfield Jackson Atlanta International Airport (KATL)
Time Latitude Longitude Altitude Speed Heading
2026-04-29 21:44 52.31006 4.77020 3 ft 0 kts 178°
2026-04-29 22:06 52.31015 4.77019 3 ft 4 kts 178°
2026-04-29 22:06 52.31042 4.77018 3 ft 4 kts 177°
2026-04-29 22:06 52.31058 4.77010 6 ft 4 kts 211°
2026-04-29 22:07 52.31078 4.77029 4 ft 4 kts 234°
2026-04-29 22:07 52.31089 4.77051 6 ft 4 kts 286°
2026-04-29 22:07 52.31081 4.77090 5 ft 2 kts 276°
2026-04-29 22:07 52.31080 4.77099 4 ft 0 kts 276°
2026-04-29 22:10 52.31080 4.77095 4 ft 2 kts 276°
2026-04-29 22:10 52.31082 4.77044 3 ft 8 kts 274°
2026-04-29 22:10 52.31107 4.76943 3 ft 11 kts 316°
2026-04-29 22:10 52.31171 4.76960 4 ft 10 kts 32°
2026-04-29 22:11 52.31228 4.77021 3 ft 10 kts 33°
2026-04-29 22:11 52.31286 4.77083 3 ft 10 kts 33°
2026-04-29 22:11 52.31345 4.77146 3 ft 10 kts 33°
2026-04-29 22:11 52.31409 4.77189 3 ft 10 kts
2026-04-29 22:12 52.31481 4.77198 3 ft 11 kts
2026-04-29 22:12 52.31551 4.77178 3 ft 10 kts 324°
2026-04-29 22:12 52.31567 4.77068 3 ft 10 kts 269°
2026-04-29 22:12 52.31564 4.76946 3 ft 11 kts 268°
2026-04-29 22:13 52.31560 4.76816 3 ft 12 kts 266°
2026-04-29 22:13 52.31554 4.76677 3 ft 13 kts 266°
2026-04-29 22:13 52.31550 4.76530 3 ft 13 kts 267°
2026-04-29 22:13 52.31545 4.76375 3 ft 14 kts 267°
2026-04-29 22:14 52.31539 4.76211 3 ft 15 kts 266°
2026-04-29 22:14 52.31533 4.76038 5 ft 16 kts 266°
2026-04-29 22:14 52.31527 4.75856 3 ft 16 kts 266°
2026-04-29 22:14 52.31520 4.75665 3 ft 17 kts 267°
2026-04-29 22:15 52.31514 4.75466 3 ft 18 kts 267°
2026-04-29 22:15 52.31506 4.75260 3 ft 18 kts 266°
2026-04-29 22:15 52.31499 4.75047 3 ft 19 kts 266°
2026-04-29 22:15 52.31491 4.74830 3 ft 19 kts 266°
2026-04-29 22:16 52.31496 4.74704 5 ft 8 kts 292°
2026-04-29 22:16 52.31544 4.74665 3 ft 8 kts 348°
2026-04-29 22:16 52.31594 4.74660 5 ft 6 kts
2026-04-29 22:16 52.31632 4.74661 6 ft 5 kts
2026-04-29 22:17 52.31661 4.74692 7 ft 5 kts 49°
2026-04-29 22:17 52.31668 4.74759 5 ft 7 kts 84°
2026-04-29 22:17 52.31670 4.74798 5 ft 0 kts 86°
2026-04-29 22:17 52.31670 4.74801 5 ft 0 kts 86°
2026-04-29 22:18 52.31673 4.74875 2 ft 24 kts 86°
2026-04-29 22:18 52.31699 4.75628 2 ft 105 kts 87°
2026-04-29 22:18 52.31752 4.77188 14 ft 166 kts 87°
2026-04-29 22:19 52.31820 4.79168 471 ft 179 kts 83°
2026-04-29 22:19 52.32401 4.80891 1447 ft 177 kts 48°
2026-04-29 22:19 52.33568 4.81696 2299 ft 196 kts 16°
2026-04-29 22:19 52.35033 4.81411 2682 ft 229 kts 348°
2026-04-29 22:20 52.36586 4.80434 3139 ft 245 kts 343°
2026-04-29 22:20 52.38168 4.79379 3864 ft 246 kts 337°
2026-04-29 22:20 52.39568 4.77791 4562 ft 251 kts 318°
2026-04-29 22:20 52.40782 4.75626 5113 ft 262 kts 314°
2026-04-29 22:21 52.42066 4.73415 5350 ft 280 kts 316°
2026-04-29 22:21 52.43469 4.71107 5771 ft 288 kts 317°
2026-04-29 22:21 52.44893 4.68798 6419 ft 289 kts 317°
2026-04-29 22:21 52.46387 4.66589 7003 ft 290 kts 327°
2026-04-29 22:22 52.48130 4.64975 7583 ft 287 kts 342°
2026-04-29 22:22 52.49995 4.63836 8171 ft 288 kts 344°
2026-04-29 22:22 52.51880 4.62668 8756 ft 291 kts 343°
2026-04-29 22:22 52.53774 4.61460 9356 ft 293 kts 343°
2026-04-29 22:23 52.55683 4.60224 9957 ft 297 kts 343°
2026-04-29 22:23 52.57608 4.58970 10532 ft 299 kts 343°
2026-04-29 22:23 52.59594 4.57682 10761 ft 315 kts 343°
2026-04-29 22:23 52.61689 4.56327 10929 ft 332 kts 343°
2026-04-29 22:24 52.63892 4.54898 11123 ft 347 kts 342°
2026-04-29 22:24 52.66141 4.53387 11614 ft 352 kts 339°
2026-04-29 22:24 52.68210 4.51143 12122 ft 361 kts 322°
2026-04-29 22:24 52.69874 4.47996 12656 ft 369 kts 307°
2026-04-29 22:25 52.71310 4.44455 13137 ft 372 kts 306°
2026-04-29 22:25 52.72768 4.40905 13669 ft 375 kts 307°
2026-04-29 22:25 52.74215 4.37305 14185 ft 379 kts 303°
2026-04-29 22:25 52.75378 4.33371 14679 ft 383 kts 293°
2026-04-29 22:26 52.76226 4.29196 15179 ft 385 kts 289°
2026-04-29 22:26 52.77059 4.24987 15661 ft 386 kts 290°
2026-04-29 22:26 52.77909 4.20766 16179 ft 387 kts 290°
2026-04-29 22:26 52.78752 4.16591 16662 ft 389 kts 290°
2026-04-29 22:27 52.79608 4.12346 17157 ft 390 kts 290°
2026-04-29 22:27 52.80468 4.08076 17640 ft 392 kts 290°
2026-04-29 22:27 52.81327 4.03792 18129 ft 394 kts 290°
2026-04-29 22:27 52.82193 3.99463 18493 ft 399 kts 290°
2026-04-29 22:28 52.83062 3.95111 19016 ft 398 kts 290°
2026-04-29 22:28 52.83935 3.90727 19362 ft 402 kts 290°
2026-04-29 22:28 52.84806 3.86343 19829 ft 403 kts 290°
2026-04-29 22:28 52.85684 3.81916 20177 ft 406 kts 290°
2026-04-29 22:29 52.86563 3.77469 20679 ft 406 kts 290°
2026-04-29 22:29 52.87440 3.73024 21115 ft 407 kts 290°
2026-04-29 22:29 52.88326 3.68513 21386 ft 414 kts 290°
2026-04-29 22:29 52.89206 3.64033 21830 ft 414 kts 289°
2026-04-29 22:30 52.90093 3.59497 22303 ft 415 kts 290°
2026-04-29 22:30 52.90990 3.54903 22538 ft 422 kts 290°
2026-04-29 22:30 52.91896 3.50263 22968 ft 424 kts 289°
2026-04-29 22:30 52.92805 3.45599 23404 ft 425 kts 289°
2026-04-29 22:31 52.93712 3.40912 23759 ft 430 kts 289°
2026-04-29 22:31 52.94621 3.36208 24255 ft 429 kts 289°